Theta_e
308 311 313 316 318 318 318 316 315 314 314 313 312 313 311 313 316 315 320 319 317 335 344 344 339 334 341 342 342 344 346 347 348 346 343 350 349 348 348 346 348 347 348 349 346 344 338 334 333 333 331 330 328 327 325 324 321 322 327 330 331 331 332 331 331 330 331 332 333 334 335 336 337 338 339 339 339 338 336 333 332 333 336 337 337 337 337 336 337 337 337 337 337 337 338 336 332
310 310 310 316 318 318 319 315 314 314 312 309 310 314 312 314 317 321 330 321 326 346 347 345 344 344 346 345 346 347 348 347 347 348 349 350 347 348 347 346 347 348 349 348 347 344 340 335 333 333 332 331 328 326 325 325 323 322 323 327 330 331 331 332 333 333 333 334 336 337 337 339 339 340 339 340 340 339 339 337 336 335 335 333 334 336 336 336 336 335 336 336 337 337 338 335 330
309 309 312 318 316 315 317 314 314 313 310 307 307 312 312 315 318 328 337 326 336 347 343 345 345 345 346 346 348 348 350 347 347 349 348 348 347 347 347 347 348 349 349 347 346 344 343 338 333 334 332 331 329 326 326 326 325 325 323 324 330 333 333 334 334 335 335 336 337 338 339 339 340 339 339 340 339 339 341 341 340 339 337 334 333 334 335 336 336 335 336 336 337 336 337 334 331
308 309 315 318 315 314 318 315 315 313 309 307 307 311 313 316 318 329 342 337 342 345 341 346 346 345 345 348 349 348 351 348 348 349 348 348 348 347 347 348 349 349 349 348 346 344 344 340 334 333 333 332 330 327 326 326 326 327 326 326 328 330 332 333 333 333 334 335 336 338 339 339 339 339 339 339 339 340 341 341 342 341 339 337 335 333 332 334 336 336 335 336 335 335 334 332 332
307 309 313 315 315 315 317 315 314 313 309 309 308 311 314 315 315 323 341 344 344 342 342 346 346 345 346 349 348 347 350 348 349 349 349 348 348 348 347 348 349 349 349 348 346 345 345 341 335 334 333 333 332 329 327 327 327 328 327 327 327 327 328 329 329 331 332 333 335 337 338 338 338 338 338 339 339 340 341 341 341 341 341 338 335 333 331 334 337 336 336 335 334 334 332 330 332
308 310 312 313 314 313 314 312 312 313 312 313 311 313 314 314 315 316 325 333 340 341 342 345 344 347 348 349 347 348 350 349 349 350 349 349 348 348 348 348 348 349 348 348 346 345 345 342 337 334 334 334 333 331 330 328 327 328 329 329 328 327 327 327 328 330 330 331 332 334 336 337 337 337 337 338 338 339 341 341 341 341 340 338 336 334 332 332 336 336 336 335 334 335 332 331 332
311 311 313 313 313 312 315 312 310 313 313 313 313 314 314 313 314 314 315 317 332 342 343 344 345 348 350 348 348 349 350 350 350 351 350 348 349 348 348 347 348 348 347 346 346 344 345 344 339 335 334 334 335 334 332 330 329 329 330 330 330 328 327 328 328 329 328 329 330 332 334 335 335 335 337 338 339 339 340 340 341 340 339 337 335 334 332 332 335 337 336 336 336 336 334 333 332
311 312 312 313 314 312 314 313 312 313 312 312 312 314 315 315 313 313 314 314 329 343 344 345 346 347 349 348 349 350 350 351 351 351 349 348 348 348 347 347 348 347 347 346 345 345 345 345 341 336 335 335 335 336 335 333 333 332 332 332 332 330 329 328 329 330 330 330 330 331 331 331 331 333 336 338 338 339 339 340 340 339 338 337 335 334 333 333 335 336 336 336 336 335 334 334 332
310 311 310 312 314 313 313 312 313 312 312 313 313 315 315 316 314 313 315 315 325 341 347 345 344 346 349 350 350 349 350 351 350 350 349 349 348 348 347 347 348 347 346 345 345 345 345 346 343 339 336 335 336 337 336 335 336 334 333 333 333 332 331 331 331 331 330 328 327 326 325 326 328 331 335 336 336 338 339 338 338 338 337 337 335 333 332 332 334 334 334 334 333 333 332 332 332
311 310 311 313 313 312 312 311 312 311 312 313 312 314 315 313 313 312 314 313 322 341 349 344 344 347 349 351 351 348 349 350 350 350 349 348 347 348 347 347 348 347 346 346 345 345 345 346 344 340 336 334 337 337 336 336 337 335 334 334 333 332 332 332 331 329 327 326 324 323 324 325 327 330 333 334 335 336 336 336 336 337 338 337 335 332 331 332 333 333 333 332 332 331 332 331 331
312 309 310 312 311 311 311 310 312 312 313 312 312 314 313 311 311 312 312 317 329 343 347 346 348 349 349 349 349 348 349 350 349 349 348 348 347 347 346 346 347 347 347 346 346 345 346 347 345 341 336 335 337 337 338 338 337 335 334 334 333 332 331 332 330 327 325 325 325 325 325 327 328 329 331 333 334 335 335 334 335 337 337 337 335 332 329 330 332 332 333 332 330 330 330 330 330
313 311 310 313 312 311 311 311 312 314 315 313 314 313 312 310 311 312 310 322 339 346 346 347 348 347 350 350 348 349 349 349 349 348 348 347 347 346 346 345 346 346 347 346 346 346 347 347 346 342 339 336 335 338 339 338 336 335 334 334 334 332 331 331 328 326 325 326 328 327 327 328 328 328 330 332 333 334 334 335 335 336 336 336 334 331 327 328 331 331 331 332 332 330 327 327 327
312 311 311 312 311 311 311 311 311 315 316 313 313 312 312 311 315 319 319 333 346 346 345 344 346 347 350 350 348 349 349 348 347 346 346 346 346 346 346 345 345 347 347 346 345 344 346 346 345 343 339 336 336 340 340 336 336 335 334 334 334 332 331 331 328 325 326 328 329 328 328 329 327 327 329 330 332 333 333 334 335 335 334 333 332 327 324 326 328 328 328 329 330 330 328 326 326
312 310 312 312 309 311 310 311 311 312 313 313 313 310 313 318 324 333 336 345 347 343 344 343 345 347 350 350 348 350 349 347 345 345 345 346 346 345 345 345 345 346 345 343 343 344 345 343 342 343 341 339 337 339 338 336 336 335 334 334 334 332 330 331 327 325 328 329 329 329 329 329 327 326 327 327 329 330 331 332 332 332 331 331 330 324 321 324 326 326 326 327 327 328 329 327 325
312 309 312 313 310 311 310 311 311 310 313 313 312 309 319 327 330 338 341 343 344 341 343 344 343 343 347 349 347 348 348 346 344 343 345 345 345 344 344 344 344 344 343 343 344 344 344 342 341 343 341 341 338 336 337 337 337 335 334 334 334 332 331 330 326 325 329 330 330 330 330 330 328 327 326 326 327 327 329 330 330 330 330 329 328 323 320 324 327 327 326 326 327 327 329 327 325
309 310 311 313 310 310 310 310 310 310 313 312 312 310 318 330 332 337 336 337 344 342 342 344 342 340 343 345 345 347 347 345 343 343 344 344 344 344 343 343 343 342 342 343 343 343 343 342 343 342 340 341 339 334 336 336 336 337 334 333 334 332 331 330 325 326 330 330 330 330 331 331 330 328 327 326 326 326 327 328 328 329 329 327 327 325 321 324 327 327 327 326 326 327 327 326 325
308 311 312 312 310 309 310 311 311 311 313 312 312 311 311 325 336 338 336 338 345 343 340 341 341 341 342 344 347 348 347 344 342 343 343 344 343 343 343 342 342 341 341 343 342 342 342 342 343 342 338 339 338 334 338 337 336 338 334 333 334 331 331 330 325 326 330 330 331 331 331 332 332 331 329 329 327 327 327 326 327 328 328 328 328 327 324 324 326 327 327 326 326 327 327 326 325
310 313 313 311 310 310 311 312 311 310 313 313 311 312 309 318 336 337 337 342 343 342 341 341 343 343 344 346 347 348 346 343 342 342 342 343 342 342 342 341 340 340 340 341 342 341 342 342 341 340 337 339 338 336 338 336 336 337 335 334 334 332 332 331 326 327 331 331 332 332 332 332 332 332 331 331 328 327 328 327 327 327 327 328 328 328 327 326 326 327 327 327 326 327 327 327 327
311 313 312 311 311 311 312 312 312 311 311 313 311 311 309 313 329 335 337 342 343 342 342 342 345 344 345 346 347 347 346 344 343 342 342 342 342 342 341 340 339 338 338 339 339 340 342 341 338 338 338 339 338 337 338 336 336 336 335 336 335 333 334 332 330 330 331 331 333 333 333 333 333 333 332 332 329 328 329 329 329 327 327 327 328 328 327 327 326 327 326 326 326 327 327 327 327
311 311 312 312 311 311 312 311 311 312 310 313 311 311 310 309 318 329 337 342 342 343 342 342 345 345 344 345 346 347 345 345 344 342 342 341 341 339 338 338 337 337 337 335 337 339 340 337 335 336 338 338 338 337 337 337 337 337 338 339 337 335 336 335 332 330 329 330 332 333 334 334 335 334 334 334 331 330 330 331 330 329 328 328 328 327 328 328 328 329 327 326 326 327 328 328 328
310 310 312 311 309 310 312 312 312 311 310 311 311 311 311 310 316 329 338 339 339 340 340 340 343 344 343 344 345 346 346 346 344 343 341 339 337 335 334 335 335 336 333 332 335 337 338 336 335 336 335 336 336 334 335 337 337 336 337 340 338 336 337 335 332 330 329 330 332 332 334 336 337 336 335 335 334 332 331 332 332 331 330 329 329 328 328 328 329 330 329 327 327 327 328 328 329
309 310 312 310 308 310 312 312 312 311 310 310 310 310 310 312 322 335 337 331 331 333 334 335 339 343 343 344 344 346 345 345 344 342 338 335 334 333 335 334 333 333 329 329 333 335 336 335 335 336 335 337 336 333 335 337 338 336 336 337 338 337 336 335 333 330 329 330 331 332 334 335 336 337 337 336 335 335 333 332 333 332 332 330 329 329 328 327 328 328 328 328 328 327 327 327 327
310 311 310 309 308 310 311 311 311 310 310 310 310 309 309 312 317 328 335 330 325 329 329 330 338 343 344 344 344 345 343 344 342 337 335 334 334 334 335 333 331 330 329 332 333 333 334 333 333 335 336 337 336 336 336 336 337 337 336 337 338 336 334 334 333 331 330 330 331 332 333 334 335 335 336 336 336 336 335 334 333 333 333 331 330 329 327 326 328 328 328 328 328 327 327 327 327
310 311 310 310 309 309 310 310 309 308 309 309 309 307 310 311 310 322 333 330 328 332 331 331 339 344 344 343 343 344 344 342 337 334 335 335 335 334 334 332 331 330 330 334 333 330 331 332 333 334 334 334 333 335 337 337 337 337 337 338 337 334 332 333 332 331 331 331 331 332 332 333 335 334 333 333 335 335 336 335 335 334 332 330 328 328 327 325 327 328 328 328 328 328 328 328 328
309 311 311 310 309 310 310 309 309 308 308 308 307 308 310 309 312 320 325 328 332 336 336 336 341 343 342 343 343 344 343 338 333 333 335 335 334 334 333 332 331 330 331 334 332 328 329 329 331 333 332 330 330 333 335 337 338 336 337 338 336 335 333 332 331 332 332 332 332 333 334 333 334 333 333 334 334 335 336 335 334 335 334 331 328 327 327 327 327 328 328 328 329 329 329 329 328
310 310 310 309 309 309 309 308 310 309 307 307 308 311 310 309 313 317 321 331 335 336 338 340 342 343 343 343 344 345 343 337 334 334 334 333 333 332 332 332 332 330 330 332 331 327 327 327 328 331 331 331 331 332 333 336 337 336 337 336 334 335 335 332 332 332 332 332 332 333 334 333 334 335 335 335 334 335 336 334 334 334 334 331 330 328 328 328 329 327 328 329 330 331 330 329 328
310 310 309 309 309 309 309 310 312 309 307 309 309 311 311 312 314 312 325 335 337 337 339 340 342 344 344 344 344 344 341 337 335 334 333 332 332 333 333 334 333 330 329 332 330 325 325 327 327 328 331 332 333 334 333 335 337 336 336 336 334 335 335 332 332 332 332 332 331 332 332 332 334 336 336 336 336 336 335 334 333 334 332 330 329 329 328 329 330 328 328 330 331 332 330 329 328
308 309 310 310 308 309 308 310 310 308 309 309 308 310 309 313 315 312 326 334 337 338 339 340 341 343 344 344 344 342 340 337 336 334 332 330 331 335 335 335 333 330 331 333 330 326 326 328 326 327 330 332 333 335 334 335 337 337 336 336 335 335 334 333 333 333 334 334 333 333 333 333 333 335 336 336 335 335 334 333 333 333 332 331 330 329 328 330 331 329 329 330 331 331 330 328 328
308 309 310 311 310 310 309 308 308 308 310 308 308 310 309 313 315 319 330 334 337 338 339 340 340 342 344 343 340 339 337 334 335 335 332 329 330 333 335 335 334 332 333 334 330 327 328 329 328 329 331 331 332 333 333 335 336 336 337 336 336 336 336 336 336 336 336 337 337 336 335 334 335 336 336 335 334 335 334 333 333 332 332 332 332 330 329 331 332 331 330 331 331 331 330 329 328
309 308 309 310 310 310 309 307 307 308 309 309 309 309 310 312 311 320 332 335 336 339 338 338 338 339 340 338 337 337 334 333 335 334 332 327 328 332 334 335 334 334 333 333 333 329 328 331 331 331 331 330 330 331 332 333 334 336 337 337 337 337 338 338 337 337 337 337 337 336 335 335 336 336 335 334 334 335 335 334 333 332 331 332 332 330 330 331 332 333 332 331 330 330 331 330 328
309 308 308 310 309 309 310 308 308 309 309 307 310 308 309 314 309 314 329 336 336 339 339 336 336 335 335 335 336 335 332 333 334 333 331 328 328 330 332 333 334 335 333 334 334 331 330 332 332 332 331 330 329 330 332 335 337 338 338 338 338 339 337 336 335 334 334 334 333 333 333 334 335 334 334 334 334 335 335 334 333 332 332 332 331 330 330 330 331 333 333 331 331 331 330 330 328
309 309 310 310 308 309 311 311 310 310 309 307 310 309 309 314 309 308 324 336 336 338 338 335 335 334 335 335 335 334 330 331 333 332 331 329 329 331 332 332 334 335 334 334 334 333 333 334 332 332 332 330 331 332 334 338 340 340 339 339 339 338 335 333 332 332 332 332 332 332 332 334 334 334 334 335 335 335 334 333 332 333 334 333 332 330 330 330 331 332 332 331 330 331 331 330 329
309 309 312 311 309 310 311 311 310 309 309 309 309 310 310 312 310 311 324 335 337 337 338 335 334 333 333 335 334 333 331 329 331 332 332 329 329 333 333 331 333 335 334 334 334 334 335 334 334 334 333 332 332 334 337 340 340 339 338 337 336 334 332 331 332 333 333 333 332 332 333 334 334 333 334 335 336 335 333 333 332 333 334 333 332 331 331 332 333 332 331 330 330 330 331 330 329
310 311 312 311 310 311 311 312 310 307 309 310 309 309 312 310 312 321 331 334 335 336 337 335 334 333 332 333 333 333 332 330 330 333 332 330 330 332 332 331 334 335 334 334 334 335 335 333 332 333 334 334 335 337 339 340 339 337 335 334 333 332 332 331 331 332 332 332 332 331 332 334 334 334 334 334 335 334 333 333 332 333 334 333 333 333 333 333 333 332 329 328 329 330 330 330 329
311 312 312 312 311 311 311 313 310 308 309 311 310 309 312 311 310 324 335 334 335 336 335 335 333 332 332 331 332 331 332 331 330 333 334 333 332 331 330 331 334 335 335 335 335 335 335 334 331 331 334 336 338 339 339 339 337 335 333 332 332 332 331 330 329 330 330 330 330 330 332 334 333 333 334 333 333 333 333 333 331 332 332 332 333 332 332 332 331 332 328 326 328 329 329 330 329
311 311 311 311 311 311 311 313 310 310 312 311 312 310 312 312 308 322 335 334 335 336 333 334 332 331 331 331 332 331 331 330 329 331 333 334 333 333 333 333 334 335 335 336 335 334 335 333 330 331 336 338 338 338 338 337 336 334 332 332 332 332 329 327 328 330 329 330 330 330 332 333 332 333 333 333 333 334 333 332 331 330 330 331 332 331 330 330 330 331 328 325 326 328 329 329 328
311 310 311 311 311 312 312 312 310 309 312 312 313 311 311 313 309 318 333 335 334 336 334 335 333 332 331 331 332 331 330 329 327 330 332 333 333 333 333 333 333 334 335 336 335 335 334 330 328 333 337 336 336 337 336 335 334 332 332 332 332 330 326 326 328 330 330 330 330 330 330 330 330 331 332 332 332 333 333 332 331 331 331 331 332 331 329 329 330 330 328 326 327 329 328 328 327
312 311 311 311 311 313 312 311 310 309 313 313 311 310 310 312 310 314 329 336 335 336 335 335 334 331 331 331 331 331 329 327 327 330 331 332 332 333 333 333 333 334 334 334 334 333 332 330 331 336 338 336 335 335 333 333 332 331 332 332 331 328 325 325 328 330 330 330 330 330 330 329 329 330 331 330 330 332 331 331 331 331 331 331 330 330 329 329 329 328 327 327 328 328 328 328 327
314 311 312 313 311 311 312 311 311 310 311 312 310 310 310 313 312 313 327 337 334 333 334 333 333 332 331 331 331 330 328 328 328 329 332 332 332 333 333 333 333 334 333 333 334 332 330 333 336 337 337 335 335 334 332 331 331 331 331 330 330 327 324 326 328 329 329 329 329 329 329 329 330 330 331 330 329 330 329 330 330 330 330 330 330 329 329 329 328 327 327 326 327 327 327 327 327
314 312 311 313 311 310 312 312 313 313 313 313 311 311 312 314 314 314 322 328 326 328 331 331 331 332 331 331 330 329 328 329 329 329 331 332 333 334 334 333 333 333 333 333 334 333 332 336 338 337 336 334 334 333 331 331 332 333 331 329 328 325 323 325 328 328 328 328 327 327 327 327 328 329 330 329 328 328 327 328 329 329 329 329 330 330 330 329 329 329 327 326 327 327 327 326 326
315 316 313 313 312 311 311 313 315 316 315 315 313 312 313 315 316 314 316 319 321 326 330 331 330 329 329 330 330 330 329 329 329 330 331 331 333 334 334 334 333 333 333 333 334 333 334 336 338 337 334 333 333 332 330 331 333 332 330 329 327 324 324 324 325 325 325 325 324 324 323 323 323 324 325 326 325 324 323 324 325 325 326 328 329 329 329 329 329 329 328 328 328 328 327 326 326
314 317 315 313 313 312 313 314 316 315 314 315 314 311 312 315 316 314 313 316 322 326 329 331 331 329 329 330 330 329 327 328 329 329 330 331 333 334 334 334 333 334 333 332 331 331 331 331 335 337 332 331 332 331 331 331 332 330 329 327 325 324 324 323 322 321 321 321 321 321 320 319 319 319 321 323 322 321 321 321 321 322 323 326 328 328 328 328 328 328 328 328 328 329 328 327 326
312 317 317 313 312 313 316 316 315 313 313 315 315 312 312 314 315 314 313 316 321 323 327 330 330 330 329 329 330 328 326 327 327 328 329 330 332 333 334 334 333 331 328 326 327 328 329 330 332 333 332 331 331 331 331 330 330 329 328 325 323 323 323 320 320 320 320 320 320 319 318 318 318 319 321 323 322 322 322 322 323 323 323 325 327 327 327 327 327 327 327 328 328 328 328 328 327
314 317 316 311 310 313 317 317 314 313 314 316 315 314 313 313 314 315 314 317 320 320 324 327 328 330 329 329 330 328 327 326 326 327 328 329 331 332 333 331 327 325 324 325 326 327 329 331 331 329 330 330 329 329 329 328 328 328 326 324 322 321 321 320 319 320 320 319 319 318 318 318 318 319 320 322 323 322 321 321 323 324 323 323 325 326 327 327 327 327 327 327 327 327 328 327 326
314 313 311 310 312 314 317 316 314 316 315 313 315 315 313 313 314 314 314 317 320 320 323 325 327 330 329 329 330 328 327 326 326 327 328 329 331 331 331 328 324 325 326 326 327 328 328 328 327 325 325 326 327 327 327 327 327 326 325 323 322 321 320 319 319 319 319 319 318 318 318 318 318 318 319 322 324 322 318 318 321 323 323 323 324 324 325 326 326 327 327 327 326 327 328 327 327
312 309 310 310 312 314 316 314 314 317 315 312 314 315 313 313 315 314 313 315 317 318 320 321 322 326 329 330 330 328 326 325 325 325 327 328 329 329 328 326 325 326 326 325 326 327 326 324 323 322 322 323 325 326 326 326 326 325 324 323 321 320 319 319 319 318 318 318 318 318 318 318 318 318 318 320 321 320 318 319 321 323 323 323 324 324 324 325 326 327 327 327 327 327 327 327 326
309 310 311 311 313 316 316 316 315 315 313 313 314 316 315 313 313 314 314 315 315 315 317 318 317 319 324 328 329 328 326 325 324 324 325 326 326 327 327 327 327 327 327 326 324 324 323 321 321 321 321 322 324 325 325 325 325 324 324 323 321 319 318 317 317 318 318 317 317 317 317 317 317 317 318 318 319 318 318 319 320 322 322 322 322 323 323 324 324 325 326 327 327 327 327 327 326
309 312 312 311 314 315 314 315 315 313 314 313 313 316 317 313 313 315 316 315 313 313 315 316 315 314 316 321 326 327 325 324 323 322 323 323 324 326 327 328 328 327 327 325 323 323 323 323 322 322 321 321 322 324 324 324 324 324 324 323 321 319 317 314 314 316 317 317 317 316 316 316 317 317 317 317 317 317 317 319 320 321 321 321 321 321 322 323 322 323 324 325 326 326 326 325 325
310 312 314 312 313 314 313 313 313 313 314 313 313 315 314 313 314 315 315 315 314 314 315 315 315 316 315 314 320 325 324 323 322 322 322 323 325 325 326 328 329 328 326 325 324 324 323 323 323 324 323 322 322 323 323 324 324 324 324 323 320 318 316 313 311 313 315 316 316 316 316 316 317 317 317 316 316 317 317 319 320 320 320 320 319 320 321 319 318 318 319 321 322 324 323 322 321
311 312 313 313 312 313 313 313 312 313 315 313 312 314 313 313 315 314 314 314 315 316 317 317 317 318 317 315 318 323 323 322 322 321 322 323 325 327 325 326 327 327 325 325 326 326 325 324 324 325 324 323 322 322 321 323 323 323 322 321 319 318 315 312 311 311 314 316 315 315 315 316 317 317 316 316 315 317 318 318 319 318 318 318 318 319 319 317 317 316 316 316 317 318 318 317 316
309 310 311 312 312 313 312 313 313 314 315 314 312 313 315 315 314 313 313 314 316 317 317 319 319 319 319 318 319 322 321 321 321 321 322 325 327 328 326 324 323 323 325 325 325 326 325 324 324 325 324 323 322 321 320 321 321 320 320 319 318 316 313 312 311 312 314 316 315 315 315 314 316 315 314 313 312 314 317 318 318 317 316 316 316 316 316 315 315 313 312 311 312 313 313 311 310
308 308 310 311 313 315 313 312 314 314 315 315 313 312 313 314 312 311 313 315 316 317 318 319 320 319 320 320 320 321 320 321 322 322 324 328 330 328 325 325 323 323 324 325 324 325 324 324 325 325 324 324 323 321 321 322 321 320 320 319 317 315 314 313 313 314 316 316 316 315 314 314 314 313 312 311 310 310 313 314 314 313 312 312 312 314 314 313 310 307 307 308 309 309 307 305 304
309 308 310 310 310 317 316 311 311 313 315 314 312 313 313 312 312 311 313 316 314 313 315 318 319 319 320 320 320 320 320 321 321 322 324 326 328 327 325 325 323 321 323 324 325 325 324 324 324 324 325 324 322 320 321 321 321 321 320 318 317 316 315 315 315 315 316 316 316 316 315 313 312 313 312 311 309 308 309 310 309 307 305 305 307 309 309 307 304 304 305 306 306 305 303 301 300
310 310 311 309 308 313 315 313 311 312 314 313 311 312 314 314 315 314 313 315 314 313 313 316 319 319 319 319 318 318 319 319 319 319 320 321 323 324 323 321 320 319 320 322 325 325 324 324 324 324 325 324 321 320 320 320 320 319 318 317 317 316 314 313 313 313 312 314 317 316 314 312 310 312 313 312 310 308 309 308 307 303 302 301 302 303 303 303 302 303 304 304 304 303 302 302 301
308 309 309 309 311 313 313 313 314 312 313 312 311 312 312 313 315 315 314 314 314 313 312 316 319 318 318 319 318 317 317 318 318 318 318 319 321 322 322 321 321 319 318 319 323 324 323 323 324 324 324 323 322 320 319 319 319 319 319 318 317 316 314 312 312 311 311 312 315 316 314 312 309 309 311 312 310 309 309 309 308 306 304 303 302 301 303 303 302 302 303 303 304 303 303 304 303
307 308 307 309 311 313 312 313 314 314 312 311 312 313 313 313 313 312 314 313 312 313 313 315 318 317 318 318 318 318 318 318 318 317 317 318 320 321 321 322 321 320 319 318 321 323 323 323 322 322 322 322 321 321 320 319 319 319 320 319 317 316 315 313 311 312 314 312 313 316 315 313 310 307 308 310 310 310 309 310 310 309 309 307 304 303 304 305 305 304 303 303 303 303 304 304 304
309 310 310 310 309 309 311 311 310 311 312 311 312 314 313 312 309 310 311 311 311 312 312 314 318 317 317 317 317 317 317 316 316 315 315 316 318 319 319 320 321 321 320 320 321 323 323 323 322 322 322 322 321 321 320 319 319 319 319 319 317 316 316 314 311 312 314 312 313 316 316 314 312 308 307 308 308 309 310 310 310 311 311 311 309 306 306 307 308 308 306 305 304 304 304 304 304
309 311 310 310 311 310 311 310 308 309 311 311 312 314 314 311 308 308 309 309 311 310 311 315 317 317 316 315 315 315 314 313 313 312 312 312 314 314 314 316 318 320 321 321 321 322 323 323 322 321 321 322 321 320 320 319 319 318 319 318 317 317 317 315 313 313 313 313 314 316 317 315 313 310 308 308 307 308 310 310 311 311 311 312 311 310 308 308 309 309 309 308 307 306 306 306 305
Wind_Speed
6 6 5 5 6 6 4 1 1 1 1 2 2 1 1 2 1 3 4 3 2 0 1 1 4 5 3 1 5 5 4 5 5 2 1 2 5 17 20 20 32 35 28 27 28 29 28 28 26 26 26 26 27 27 27 28 28 28 29 29 29 28 27 26 25 25 24 23 22 21 20 19 18 17 16 16 15 15 16 18 19 19 19 19 19 19 18 17 17 16 16 15 15 15 14 12 13
6 5 4 5 6 4 2 1 1 1 2 3 3 2 1 1 1 4 6 4 1 2 3 4 5 5 4 3 6 5 4 2 1 1 2 5 12 17 18 24 34 33 27 26 28 28 28 28 27 27 26 27 28 27 27 27 27 28 28 29 28 27 26 25 25 24 23 22 21 20 19 18 17 16 16 15 15 15 16 17 19 19 19 19 19 19 18 18 17 16 15 15 15 15 14 12 13
6 5 6 8 4 1 1 0 2 1 3 4 4 2 2 3 1 5 5 0 5 4 2 3 4 5 3 3 3 0 2 2 2 3 3 10 13 13 17 25 29 27 26 26 28 28 27 27 27 27 27 28 28 28 28 26 26 26 27 28 27 26 25 25 24 23 23 21 20 19 18 17 17 16 16 15 15 15 15 15 17 18 18 18 19 18 18 18 17 17 16 15 15 15 14 12 14
6 6 8 7 2 1 2 1 1 2 4 4 2 2 3 4 3 5 4 5 6 1 2 2 3 2 2 3 2 2 3 2 3 3 5 10 11 14 18 22 24 24 25 26 27 27 27 27 28 28 28 28 28 28 27 26 26 25 26 26 26 25 25 24 23 23 22 20 19 18 18 17 16 16 15 15 15 15 14 14 15 16 17 17 17 18 18 18 18 17 16 15 15 15 13 14 15
6 6 7 4 1 1 2 1 1 3 5 3 1 1 3 4 3 4 4 5 5 1 2 2 2 2 2 4 2 1 3 2 3 4 8 10 11 16 19 21 23 23 24 26 26 26 26 28 29 28 28 28 28 28 27 26 25 25 25 25 25 24 24 23 22 22 20 19 19 18 17 16 15 15 15 15 15 15 14 13 14 15 16 16 16 16 17 18 18 17 15 15 15 15 14 15 15
7 6 4 2 0 0 1 2 2 5 4 2 1 2 3 2 2 3 1 4 5 1 1 2 3 3 3 3 1 1 1 1 4 5 9 12 14 17 19 21 22 23 23 25 26 25 26 29 29 28 29 29 29 28 27 26 24 24 23 23 23 22 22 21 21 20 20 19 18 17 16 15 15 14 15 15 16 16 14 14 15 15 16 16 15 15 16 17 18 17 15 15 15 15 15 15 14
7 5 2 2 1 1 2 3 4 5 3 3 3 2 1 0 1 3 5 5 4 4 1 2 5 5 4 2 2 2 2 2 3 6 10 13 16 17 20 21 21 22 22 25 24 24 25 28 29 28 30 30 29 28 27 26 24 24 23 22 21 21 21 21 21 19 19 18 17 16 15 15 14 14 15 15 15 16 15 15 15 16 16 16 14 13 15 16 17 16 15 15 15 15 15 14 13
6 3 0 2 2 0 2 3 4 4 1 2 4 5 4 2 3 5 5 4 1 2 3 5 7 4 3 2 2 2 3 0 4 10 12 15 17 17 19 21 21 22 23 24 23 23 25 27 28 28 29 30 29 28 27 27 25 24 23 22 20 20 20 20 19 18 17 17 16 15 14 14 14 14 14 14 14 15 15 15 14 14 15 15 14 13 13 14 16 15 14 14 14 14 13 12 12
3 1 1 1 2 1 2 3 3 2 3 6 6 6 7 4 5 6 7 6 2 3 6 7 5 3 4 3 2 2 2 4 9 13 13 16 17 17 19 19 21 22 23 23 22 24 25 27 28 27 28 28 28 28 28 27 26 24 22 20 19 19 19 19 17 17 17 16 15 14 14 14 14 14 13 14 14 14 14 14 13 13 14 14 14 13 12 12 14 14 14 14 13 13 12 11 10
2 1 1 1 2 2 3 2 2 2 4 6 6 8 7 3 5 7 8 7 5 7 6 4 2 4 6 4 2 2 3 8 12 13 14 16 16 17 18 18 20 22 22 21 22 24 25 26 27 28 28 28 27 27 28 27 25 24 21 20 20 19 18 18 17 17 17 16 15 14 13 13 14 14 14 13 13 13 13 12 12 12 13 14 14 12 11 11 13 13 13 13 14 13 12 11 10
2 1 1 1 3 4 4 3 2 3 4 4 6 6 5 3 4 6 9 6 5 8 7 4 3 7 7 3 2 2 5 10 12 14 15 17 16 17 19 18 19 20 20 20 20 23 24 25 26 27 28 29 27 24 26 27 25 23 21 21 19 17 16 17 17 17 16 15 15 14 13 13 13 14 14 13 13 13 12 11 11 12 12 13 12 11 11 12 13 13 13 13 13 14 13 11 9
2 1 1 2 3 3 2 2 2 4 4 3 4 3 4 3 4 6 10 6 6 9 7 4 5 7 5 3 2 4 7 9 12 14 15 16 16 16 18 18 19 17 18 20 20 21 23 25 26 27 28 28 27 24 25 26 24 21 20 20 17 15 16 16 16 16 15 15 14 13 12 12 12 13 14 13 12 12 11 11 10 10 11 10 10 9 10 12 12 12 12 12 12 12 13 11 10
1 2 2 2 1 1 1 1 2 3 3 0 2 6 7 2 2 4 7 7 7 9 5 4 8 6 3 3 2 4 7 9 13 14 15 16 16 17 17 18 19 16 17 20 21 22 22 23 24 25 27 28 27 26 25 24 23 22 20 18 16 15 15 16 15 15 15 15 13 12 12 12 12 12 12 12 12 12 11 11 10 9 9 9 8 8 9 11 10 10 10 10 10 10 11 12 11
1 1 2 2 0 1 2 1 2 2 1 1 1 6 6 2 2 1 6 8 7 3 2 4 7 4 2 4 2 4 7 12 15 15 15 15 16 18 17 17 17 16 17 18 18 19 17 16 21 25 27 28 28 27 25 24 23 22 20 18 16 15 16 16 15 15 15 15 13 12 11 11 12 11 11 11 11 11 11 10 10 9 8 8 8 7 9 10 10 10 9 8 7 8 9 11 12
2 1 1 1 1 1 3 2 1 2 1 1 1 5 3 2 3 2 4 5 4 1 3 5 2 0 3 5 4 7 11 16 17 15 15 16 17 18 18 17 16 16 16 16 15 16 15 14 20 24 26 28 28 28 27 25 23 22 20 19 16 15 17 16 16 16 15 14 13 12 11 11 11 11 10 10 10 9 9 9 9 8 8 9 8 8 9 10 10 10 9 8 7 7 7 9 12
1 1 1 1 2 2 3 3 1 1 1 1 1 4 2 4 2 2 2 0 5 2 2 3 1 2 3 3 3 12 16 18 20 17 16 17 18 17 18 17 16 16 15 16 15 15 16 16 18 20 20 24 29 29 28 26 23 22 21 19 17 17 17 17 16 16 15 14 13 12 11 11 11 10 10 9 9 8 8 8 8 8 8 8 8 8 9 10 9 9 8 7 6 6 6 9 12
1 1 1 2 3 3 4 4 4 1 0 1 3 6 5 4 2 2 1 1 5 4 2 2 1 3 1 0 6 18 20 21 22 19 17 18 17 16 16 16 15 15 15 15 16 16 15 14 15 16 17 21 29 29 27 26 23 22 21 19 18 17 17 16 16 16 15 14 13 13 12 12 11 11 10 9 8 8 8 8 8 8 8 8 8 7 7 8 8 8 7 6 6 6 6 8 11
2 2 2 3 3 3 4 5 4 1 2 3 5 5 5 4 2 2 1 4 4 4 3 3 2 4 3 4 13 21 21 22 22 18 17 15 15 15 14 15 14 14 15 14 14 14 12 12 13 16 19 21 27 26 24 25 24 23 22 19 17 16 17 16 16 16 16 15 14 13 13 12 11 11 11 10 9 9 8 8 7 7 7 7 7 6 6 7 8 7 6 6 6 6 6 7 10
2 2 2 3 4 3 3 3 2 1 3 5 5 2 3 4 1 1 2 4 4 5 2 1 1 4 5 9 17 19 19 20 18 17 16 14 13 12 11 12 13 13 13 14 12 10 9 10 13 17 20 21 24 24 23 23 24 24 21 19 18 16 17 16 16 17 17 16 14 13 12 12 11 11 10 9 9 9 8 8 8 7 7 6 6 6 6 6 7 6 7 7 6 6 5 6 9
2 2 3 3 4 4 2 4 5 3 3 7 5 1 3 3 2 1 1 4 4 6 4 3 4 5 7 11 16 18 18 18 16 16 14 12 11 10 10 11 13 12 14 15 10 7 8 8 12 19 21 21 23 24 22 21 21 22 19 17 17 17 17 17 17 17 17 15 13 12 11 12 11 11 10 9 9 8 8 8 7 7 6 6 6 5 5 6 6 5 6 7 7 6 5 5 6
2 3 3 1 3 4 4 5 6 4 3 4 3 3 4 2 1 2 4 5 3 6 6 5 6 9 12 12 15 17 16 16 15 15 14 13 14 17 17 16 17 16 17 15 8 6 7 10 15 20 20 18 20 22 22 21 20 21 19 16 16 17 16 16 17 17 16 14 12 11 10 10 11 11 10 10 9 8 8 7 6 7 6 6 5 4 4 5 5 5 6 7 6 6 6 5 5
2 3 2 1 4 4 4 3 4 2 2 3 2 5 4 1 1 3 7 5 1 2 4 4 5 10 14 15 16 16 15 14 13 15 16 16 17 20 19 19 21 21 18 14 9 6 8 12 15 18 19 18 18 20 21 18 17 18 19 18 17 16 16 16 17 16 15 14 13 11 10 10 10 10 9 9 9 8 8 7 6 6 6 5 4 4 3 3 4 4 5 5 5 5 5 5 5
3 2 1 3 4 5 4 0 3 3 1 3 2 3 3 1 2 2 7 5 1 2 5 4 6 11 13 15 16 16 15 13 13 15 17 17 19 20 17 20 23 24 20 14 12 10 10 12 11 12 16 17 14 14 18 17 15 16 18 18 18 17 16 16 16 15 15 14 13 11 10 9 9 8 7 7 8 8 8 7 6 5 5 5 4 4 3 3 3 4 4 4 5 5 5 5 5
4 3 2 4 5 6 5 2 3 2 3 3 1 3 4 3 2 1 6 5 2 4 5 3 7 12 13 15 15 15 15 13 13 14 17 18 20 20 20 23 25 25 19 15 18 17 14 13 8 5 9 13 10 8 11 12 13 15 16 17 17 17 16 15 15 14 14 14 13 11 10 9 7 6 6 6 7 7 6 5 5 6 5 5 4 4 3 3 3 3 4 4 4 5 5 5 5
4 4 2 2 4 6 4 4 6 4 5 2 2 4 3 4 2 1 5 2 2 3 2 6 10 13 13 14 15 15 13 14 14 14 17 19 20 21 19 23 25 24 19 17 20 21 19 18 13 7 8 13 11 9 9 8 11 14 14 13 15 16 15 15 14 14 14 13 13 11 10 8 7 6 5 4 5 5 5 3 4 6 7 6 5 5 4 4 4 4 5 5 5 5 4 5 5
4 5 3 3 4 4 3 4 5 3 2 3 4 3 1 2 1 3 4 2 2 1 5 7 10 12 13 13 14 15 13 13 15 15 17 21 22 20 19 20 22 23 22 19 19 21 22 21 17 12 12 15 13 14 14 10 10 13 11 11 14 13 13 15 14 14 14 12 12 11 10 8 6 5 4 3 3 3 3 3 3 5 7 7 6 5 4 5 5 6 6 6 6 5 5 6 7
3 4 3 4 4 4 2 4 3 2 2 4 5 2 2 1 2 3 1 2 3 5 6 7 10 11 12 13 13 13 12 12 15 16 17 19 16 16 18 18 20 23 23 22 23 25 24 22 21 18 16 17 17 17 17 13 12 11 9 10 13 11 11 15 14 14 13 11 11 10 9 8 6 5 4 3 3 3 3 2 3 5 6 7 6 5 5 5 6 7 7 8 7 6 7 9 10
2 3 2 4 4 4 3 4 3 2 3 5 5 2 2 2 3 2 1 3 5 7 8 8 10 10 11 12 11 10 9 11 14 17 17 15 12 13 17 18 19 23 22 22 28 30 27 25 24 21 19 19 18 17 17 16 13 10 9 9 10 10 12 13 13 13 12 11 10 10 10 9 7 5 5 4 4 4 4 3 3 4 6 7 7 6 6 5 6 7 8 8 7 6 7 10 11
1 2 2 3 3 3 3 2 2 1 2 4 5 3 1 3 3 1 1 4 6 8 9 9 10 10 10 10 9 8 8 9 11 14 16 15 15 15 15 17 19 21 19 21 25 28 28 27 24 22 22 20 19 18 17 16 14 10 9 9 10 12 12 10 10 11 11 10 9 10 10 8 8 8 8 6 4 3 3 3 4 5 7 9 8 8 8 5 5 7 8 8 7 6 7 8 9
1 2 2 2 2 2 1 0 0 2 2 3 5 4 3 4 4 1 1 5 7 7 8 8 9 9 10 9 8 7 7 9 9 12 16 15 17 19 11 11 19 19 18 21 22 26 28 25 23 23 23 22 21 19 16 14 14 11 9 10 12 13 11 9 8 7 7 7 7 8 7 6 9 10 9 6 4 4 4 4 5 5 8 10 9 9 8 6 5 5 7 8 7 6 6 7 8
0 2 1 1 2 2 1 0 2 3 1 2 5 4 3 4 3 2 3 6 7 7 7 7 8 9 9 8 8 7 6 8 10 14 19 17 17 18 9 9 19 18 20 24 23 27 28 23 23 23 24 24 21 17 14 12 13 13 12 12 12 11 9 7 5 4 5 5 5 6 4 4 8 9 7 7 6 6 5 5 6 5 7 9 9 9 9 9 7 5 5 7 7 6 6 6 7
1 2 2 0 2 2 2 1 4 4 1 2 5 4 4 5 1 1 5 7 8 7 7 8 8 9 9 9 8 7 5 6 11 14 18 19 15 15 12 13 18 20 24 28 25 28 29 26 25 25 25 24 20 16 13 11 11 11 12 11 11 9 6 3 1 1 2 2 2 2 2 3 6 7 7 7 7 6 5 6 6 5 7 9 10 11 10 9 7 6 6 6 7 7 6 5 6
1 1 2 1 2 2 2 2 3 4 1 1 5 3 2 3 2 1 6 9 8 7 8 9 9 9 9 9 8 8 7 6 10 12 16 18 16 18 18 19 22 25 27 29 27 28 30 29 24 23 26 23 19 17 14 12 10 9 9 9 9 6 2 1 1 1 1 1 1 2 3 4 5 6 6 6 6 6 6 6 5 5 7 8 8 9 8 6 6 9 11 8 8 8 7 6 7
1 1 1 1 2 2 1 1 1 1 2 2 4 4 5 3 3 1 7 9 8 8 8 8 8 8 8 8 8 9 9 8 9 12 17 19 17 20 22 24 26 27 25 27 27 27 29 26 17 15 21 22 20 19 15 12 10 9 9 8 6 4 2 1 1 1 1 1 2 2 3 3 5 6 6 6 6 7 6 6 5 5 8 8 7 7 6 5 5 8 11 10 9 7 7 7 8
4 2 2 1 2 2 2 2 2 2 2 3 4 5 9 7 1 1 6 7 8 7 6 7 7 7 7 8 9 9 9 8 8 10 16 17 16 20 24 22 23 24 24 25 25 25 24 21 13 13 20 22 21 19 16 13 11 10 10 8 6 4 3 2 1 2 2 2 2 2 3 4 5 6 6 7 7 7 7 6 5 6 8 9 7 6 5 5 5 6 9 11 7 5 5 6 7
5 2 2 2 2 3 4 3 1 1 2 4 7 8 9 8 4 3 5 6 7 6 5 6 6 7 7 7 8 8 9 7 7 9 13 13 12 17 20 18 19 20 23 24 23 23 21 18 15 15 20 22 22 21 19 17 14 12 11 9 7 6 6 5 4 5 6 5 5 5 7 7 6 6 6 7 8 7 7 8 8 8 9 8 7 6 6 5 6 6 8 11 8 4 4 5 5
4 2 2 2 2 3 4 3 2 2 3 4 6 8 9 7 3 4 6 6 7 8 7 7 8 8 8 8 9 8 7 6 6 9 11 11 9 13 16 15 16 17 20 23 23 22 21 20 18 16 19 22 23 23 22 21 18 15 12 10 10 10 8 6 6 7 8 9 9 10 10 9 7 6 6 7 8 8 9 9 8 8 7 6 5 6 6 6 7 8 8 10 8 7 6 5 5
2 2 1 2 3 4 3 1 1 2 3 1 1 5 9 6 1 1 6 8 9 9 9 8 9 9 8 9 10 7 6 5 7 8 9 10 9 11 15 16 17 17 19 22 23 23 23 23 21 18 19 21 22 24 23 21 18 16 13 11 12 12 9 6 7 9 10 11 11 10 10 10 8 7 6 6 8 8 8 8 7 6 5 5 5 6 7 8 8 7 8 8 8 8 6 6 7
2 1 2 2 2 4 3 1 1 0 2 1 2 4 6 3 2 1 6 7 5 5 6 5 6 8 8 8 7 5 6 6 8 8 8 10 11 11 13 15 18 19 21 24 25 25 25 23 20 18 19 20 21 21 20 18 16 14 13 13 13 12 10 7 9 11 12 12 12 12 11 10 8 7 8 9 10 9 8 8 7 6 6 5 6 6 7 8 8 7 7 7 7 7 6 6 7
2 2 2 2 1 1 2 1 2 1 1 1 3 4 1 1 2 1 4 3 2 2 5 5 3 6 6 6 7 7 9 10 9 9 9 10 11 11 12 15 19 20 21 23 24 25 25 23 18 16 18 19 19 18 16 15 15 14 13 14 12 11 10 10 11 13 13 14 14 14 13 11 9 8 9 10 11 11 10 9 8 6 6 6 6 6 6 7 7 7 8 9 8 7 6 6 7
2 3 4 4 3 4 3 1 1 0 0 1 2 4 3 2 0 2 1 2 4 2 4 6 4 4 5 7 9 9 10 10 10 10 9 10 11 12 13 14 17 20 22 25 26 25 23 20 17 17 18 18 18 17 16 16 16 16 15 14 12 11 11 10 12 13 13 14 14 13 12 10 9 8 8 9 10 11 10 9 8 6 6 6 6 6 7 7 7 7 8 9 9 9 8 7 7
2 5 9 8 5 4 3 2 0 3 2 1 1 2 3 2 0 1 2 2 5 2 3 7 6 5 7 9 9 6 7 8 8 8 8 9 10 11 12 14 16 16 14 10 9 10 13 14 17 21 21 20 20 18 17 18 18 18 17 16 14 13 11 10 11 11 11 11 12 11 10 8 7 6 6 7 8 9 8 7 7 6 6 5 5 5 6 7 7 7 8 9 8 8 9 8 7
2 4 8 8 4 2 2 1 1 2 1 2 1 1 2 1 2 1 3 2 6 3 3 6 6 7 8 9 7 6 7 6 6 7 7 8 10 11 12 11 5 7 19 29 26 15 13 15 19 25 25 22 21 20 19 19 18 18 17 15 14 13 12 11 11 10 9 9 9 9 9 8 8 7 6 6 7 7 6 7 6 5 5 5 5 5 6 7 7 8 8 9 8 7 7 7 7
2 2 5 8 6 4 4 2 1 0 0 2 0 1 2 3 1 2 2 2 5 4 6 7 7 8 9 10 8 6 7 7 7 7 7 8 9 10 7 8 21 27 28 26 20 15 17 22 23 23 24 23 22 21 20 19 18 18 17 14 13 13 12 13 12 10 8 8 9 9 9 9 8 7 6 6 6 6 5 5 4 4 5 6 7 7 7 7 7 7 7 7 7 6 6 6 7
1 2 5 6 5 3 3 2 2 1 1 3 1 4 2 2 1 3 3 1 2 3 5 6 8 9 9 10 9 7 6 6 6 6 5 6 7 5 7 21 27 20 13 13 17 17 17 22 22 19 19 21 22 22 21 19 18 17 16 14 14 13 12 13 13 10 9 7 7 8 8 8 8 6 6 6 7 6 4 3 3 4 5 7 8 9 8 7 6 6 6 6 7 7 5 5 7
1 6 6 5 4 3 2 1 2 1 2 3 2 4 1 3 1 2 1 1 1 3 3 3 6 7 9 9 8 7 5 4 5 5 5 5 5 8 16 23 21 15 13 17 20 18 8 4 6 10 14 17 20 22 22 20 18 17 15 14 13 13 13 13 12 11 10 8 7 7 6 6 6 6 6 5 6 5 3 3 4 6 7 8 9 9 8 7 7 6 6 7 8 8 6 6 7
4 6 6 5 3 2 1 2 1 2 2 2 2 5 1 3 1 1 1 1 2 4 5 4 3 5 7 8 6 4 4 4 5 6 6 7 9 14 19 21 20 18 17 19 23 23 13 12 10 5 6 12 16 19 21 21 20 18 15 12 10 10 11 12 12 11 10 9 8 8 6 5 5 6 6 5 5 4 3 4 6 8 8 9 9 8 8 8 9 9 8 8 8 8 8 8 8
3 2 3 3 1 2 1 1 0 3 3 2 2 3 1 3 2 1 2 3 5 5 6 8 8 8 6 4 1 2 4 6 7 7 7 9 11 14 17 18 18 18 18 21 25 25 21 14 9 3 1 5 10 14 19 21 20 19 16 13 10 8 8 9 10 10 9 9 9 8 7 7 7 7 7 6 5 4 4 4 6 8 8 8 8 7 9 11 12 13 12 12 11 11 12 12 12
2 2 3 4 1 1 2 1 1 3 1 2 1 2 1 1 1 2 5 7 7 6 7 9 10 10 9 5 2 4 6 7 8 7 8 8 8 11 13 12 12 14 18 22 23 23 23 22 20 15 8 6 10 17 21 23 21 20 18 15 12 8 7 7 8 8 8 9 9 8 8 8 9 8 7 6 5 4 4 5 6 6 7 7 7 8 10 12 13 14 14 15 15 15 15 15 15
4 4 4 4 3 2 3 2 1 2 1 2 2 2 1 2 1 3 6 8 8 7 7 7 8 8 8 4 2 6 8 8 8 8 8 8 8 9 10 11 11 11 13 18 21 22 23 23 24 24 20 17 20 21 20 19 19 19 19 17 14 11 9 8 7 7 8 8 8 8 8 9 9 8 7 6 5 4 4 5 5 5 6 6 7 8 10 12 12 12 13 14 15 15 15 14 15
3 1 2 4 4 3 3 3 3 3 2 2 0 1 2 4 2 4 5 5 5 6 6 5 5 4 3 3 5 8 8 8 8 9 9 9 9 7 8 11 12 9 11 15 20 24 26 27 27 28 29 28 25 19 13 13 15 18 19 18 15 13 12 11 9 8 8 7 7 7 7 8 8 7 7 6 4 4 5 5 4 4 5 6 8 9 10 10 9 10 12 12 13 13 13 12 12
1 1 2 2 3 3 1 0 1 1 2 2 1 1 0 1 1 2 1 0 3 6 8 7 7 6 6 7 7 7 8 8 8 9 9 9 10 8 5 4 4 8 13 16 21 26 28 29 29 31 33 30 25 19 17 19 20 20 20 19 17 15 14 13 11 10 9 7 7 7 6 7 7 6 6 5 4 4 5 5 4 4 5 6 8 9 9 8 8 9 11 12 13 12 12 12 13
3 2 3 1 0 4 3 2 2 1 2 2 1 1 0 1 2 1 1 2 5 8 10 9 9 9 8 7 6 5 6 6 6 7 6 5 5 4 1 1 2 7 14 18 22 25 27 28 30 32 32 27 23 22 24 26 24 19 17 17 16 14 13 12 11 9 7 8 9 8 6 6 6 5 5 4 4 5 6 5 5 5 6 6 7 7 7 7 9 10 12 12 12 12 13 13 13
3 3 5 3 2 2 2 2 2 0 4 2 2 1 2 3 2 2 5 7 9 10 10 9 9 9 9 8 7 7 6 5 6 6 6 7 6 4 3 3 3 5 11 16 21 24 27 28 29 30 31 27 23 24 25 24 21 17 16 17 16 13 11 13 13 9 6 8 10 9 8 6 5 6 6 5 4 5 6 6 6 6 6 7 7 7 8 8 9 11 12 12 12 12 13 13 13
1 2 4 3 2 2 2 2 2 3 4 2 2 1 1 1 1 5 7 9 11 11 10 8 8 9 7 7 8 8 7 6 6 7 6 6 7 6 7 6 3 3 7 13 19 23 25 25 23 23 26 28 26 24 21 20 22 21 20 18 15 14 13 13 15 11 5 6 8 9 10 8 6 6 7 7 6 5 6 6 6 7 7 7 7 8 8 8 9 10 11 11 11 11 11 12 12
3 3 3 1 1 2 2 1 2 4 4 2 3 2 2 1 3 7 9 10 11 10 8 6 7 7 6 5 6 7 7 6 5 6 6 7 9 10 10 8 6 5 7 11 16 20 19 19 19 18 21 25 25 23 20 19 21 23 23 20 18 19 17 14 15 13 7 10 10 10 12 10 8 7 7 8 8 6 6 6 6 6 6 6 6 6 7 7 8 9 9 10 10 10 10 10 10
3 4 4 1 1 1 1 1 1 1 3 3 3 3 2 2 3 6 9 10 10 9 7 3 5 6 6 6 6 6 7 7 6 6 6 7 10 12 12 10 8 8 7 8 10 13 14 15 16 16 17 20 22 23 22 20 21 23 24 22 22 24 21 16 15 14 14 16 14 10 12 13 11 9 7 7 9 8 8 7 6 5 5 5 4 5 5 5 6 6 7 8 8 8 8 9 9
3 3 3 3 3 3 4 3 1 1 1 2 3 4 2 2 3 5 7 8 8 7 4 1 6 7 7 8 8 8 8 8 8 8 8 9 11 12 12 11 11 10 10 8 7 7 9 10 12 13 14 16 17 20 22 23 23 23 25 24 22 23 22 18 16 15 18 19 14 12 14 15 14 13 10 8 8 9 9 8 7 6 5 5 5 4 4 4 4 3 3 4 5 5 6 6 7
Wind_Direction
150 160 143 145 145 143 154 218 219 132 263 263 256 260 202 206 296 276 278 275 272 347 199 90 130 144 131 166 157 111 59 160 155 154 203 20 126 153 159 159 160 159 157 159 164 166 163 162 160 156 153 150 148 145 143 143 143 144 144 144 143 141 139 138 138 138 139 141 142 141 140 139 137 135 133 132 130 126 123 120 118 120 123 124 124 124 125 128 129 128 128 128 127 127 124 126 132
163 169 154 145 139 157 155 284 240 143 228 254 236 207 73 164 181 303 304 300 207 99 95 94 95 81 43 66 114 107 68 43 54 77 56 114 137 148 160 162 160 158 156 159 163 165 162 162 160 157 154 151 149 147 145 144 143 144 145 145 143 139 139 140 140 141 141 142 141 141 140 138 137 136 135 134 133 131 130 126 123 121 121 121 122 125 128 129 129 129 130 131 129 129 127 130 133
173 167 153 143 125 233 127 148 254 170 202 238 236 177 117 148 77 349 340 270 144 129 109 91 72 57 22 101 100 337 100 71 131 106 109 143 145 153 161 159 157 155 156 158 163 166 163 162 161 157 154 152 150 148 146 144 143 143 144 144 142 140 141 142 142 142 141 141 141 141 140 139 139 139 139 138 137 136 135 134 131 125 121 119 118 121 126 129 130 130 131 132 132 131 131 135 133
173 163 161 155 129 239 152 203 239 189 206 227 255 164 177 136 56 2 56 133 155 118 64 98 74 47 339 87 39 332 104 128 157 130 143 156 154 154 156 155 153 153 156 159 163 166 165 163 162 159 156 153 150 148 146 144 144 142 143 144 144 144 144 144 144 143 141 141 141 142 141 141 141 141 142 141 139 136 135 136 133 128 124 121 118 117 119 127 130 129 131 132 133 134 136 139 134
170 160 171 187 199 174 156 199 117 221 212 195 262 95 170 141 58 26 93 174 197 31 51 128 101 92 58 54 356 333 97 120 144 157 155 152 149 149 153 152 150 154 158 160 163 165 166 165 163 160 157 154 150 148 146 146 145 144 144 144 146 146 146 146 146 144 143 143 143 144 144 143 142 143 143 143 141 136 135 134 131 129 127 124 120 117 116 124 130 130 131 132 133 135 135 137 136
162 150 160 190 41 43 166 200 196 225 223 180 227 96 149 170 4 2 15 254 232 183 120 142 110 119 106 52 17 80 23 152 151 166 157 149 147 148 150 150 151 156 160 162 163 164 167 168 166 162 158 154 150 148 148 148 147 148 147 146 147 147 148 147 148 147 146 146 147 148 147 145 144 143 143 143 143 138 137 138 136 135 131 126 121 118 118 124 130 132 130 131 134 136 138 141 142
159 151 137 161 113 329 214 224 222 230 224 170 240 295 211 237 272 290 305 283 231 185 177 129 131 127 112 99 135 90 335 270 169 150 150 149 148 149 151 153 153 155 160 162 162 164 168 169 168 165 159 154 151 149 149 150 150 151 150 148 147 146 147 147 148 148 148 149 150 151 149 147 147 145 144 144 145 142 143 145 139 136 132 127 124 120 121 126 129 130 130 134 137 138 141 144 148
158 151 359 184 148 319 223 240 242 233 229 223 263 279 279 272 223 266 281 256 227 170 138 136 149 142 119 171 176 81 25 357 143 135 142 148 149 152 154 155 152 155 161 161 162 163 168 171 170 166 159 155 152 150 150 152 152 152 150 147 147 146 146 146 147 148 149 150 151 152 151 151 149 147 144 144 145 144 145 145 138 134 134 130 126 122 122 126 130 131 134 140 143 143 144 144 148
134 105 205 202 172 205 236 250 256 240 266 277 275 257 266 258 231 254 251 241 228 155 143 147 175 170 145 172 154 88 63 114 128 131 142 150 151 153 156 157 152 155 160 161 164 164 169 172 169 164 159 156 154 153 153 153 152 150 147 146 148 147 147 148 148 150 151 151 154 155 155 154 151 148 146 145 145 145 144 141 138 136 137 133 127 123 122 125 132 137 139 142 146 148 149 148 149
110 9 178 157 174 210 236 240 255 253 256 277 284 267 271 255 227 236 239 245 200 161 143 142 159 146 147 157 129 90 130 135 132 132 144 154 154 154 157 157 153 154 158 163 166 166 170 170 167 164 161 158 156 156 155 151 150 147 144 149 149 146 148 149 149 151 153 154 156 157 157 154 152 151 147 145 143 144 143 141 143 142 142 137 130 125 125 130 134 139 140 143 150 153 154 155 152
151 54 171 193 199 213 231 240 245 270 272 289 287 267 276 250 213 223 230 234 182 159 156 165 134 135 138 145 131 94 140 146 142 136 147 157 154 156 155 155 156 155 158 163 166 167 169 167 165 164 162 160 157 159 157 150 148 147 149 152 146 143 148 149 150 152 154 155 155 155 155 151 150 150 147 143 141 140 141 141 144 145 144 135 128 127 134 139 137 141 146 149 154 156 157 159 158
182 135 181 212 214 218 231 259 263 284 286 300 311 328 338 254 200 217 215 200 170 156 160 199 157 141 132 138 131 118 143 148 145 140 147 154 153 154 152 155 157 154 157 161 164 167 169 168 165 161 161 161 160 161 157 150 150 153 154 151 143 144 151 151 152 153 153 152 151 150 148 147 147 146 145 142 140 139 139 140 142 141 136 128 126 128 138 143 139 143 151 152 154 157 159 159 158
197 147 176 203 233 215 184 257 274 296 293 283 333 335 340 290 229 231 189 160 160 155 153 175 153 142 115 127 127 140 151 146 143 143 146 149 151 150 147 152 154 151 155 162 166 167 169 169 162 158 160 163 161 157 154 154 157 159 157 153 147 148 153 153 153 154 154 150 146 145 144 144 143 142 141 140 139 140 140 140 139 135 128 127 128 125 133 142 139 139 143 146 153 157 157 155 152
196 166 188 201 32 185 191 245 261 252 270 101 8 326 330 353 331 202 147 143 148 148 116 133 149 140 115 141 165 178 159 146 144 144 148 149 149 151 148 148 149 148 152 159 162 163 169 170 160 158 161 163 161 156 157 163 163 161 161 156 149 150 156 156 156 158 154 150 147 145 145 142 139 137 135 136 138 138 140 139 137 135 131 131 132 124 125 133 134 131 126 123 138 152 155 154 148
190 138 152 180 139 194 212 230 255 197 143 77 30 329 333 35 354 106 117 137 122 34 112 121 165 23 166 175 179 181 158 144 146 145 147 148 150 151 148 145 143 144 146 149 151 160 171 175 167 163 163 161 159 160 162 167 166 165 164 157 154 158 161 160 159 160 156 152 151 149 146 141 137 134 132 133 136 138 138 135 135 136 137 138 134 124 120 125 128 126 120 111 118 138 154 154 146
157 126 132 186 184 199 201 197 210 175 143 154 5 339 16 52 7 70 6 296 114 121 130 125 286 353 186 191 149 160 151 143 149 149 144 147 147 142 142 142 140 141 139 140 146 161 170 170 165 163 166 158 156 163 165 168 169 167 167 162 163 164 163 163 162 161 158 157 157 157 153 148 143 139 136 134 134 137 135 130 131 136 141 143 137 126 122 124 128 128 122 111 105 117 144 152 145
142 177 190 199 199 202 192 190 187 159 332 270 9 359 9 35 41 86 3 164 127 127 47 54 19 352 246 170 135 149 143 143 149 146 144 146 143 136 138 138 136 138 136 139 148 159 162 159 154 158 164 152 156 166 166 167 169 170 172 170 167 165 163 164 164 164 162 163 166 166 162 156 152 149 145 142 141 136 133 130 128 133 139 144 140 132 128 124 127 131 127 114 100 99 124 145 144
180 184 206 217 190 188 192 193 189 189 339 333 355 1 357 10 75 129 135 104 113 134 58 41 51 26 39 99 136 142 139 144 146 146 148 147 144 139 136 136 138 135 135 138 145 152 152 148 142 149 155 150 157 166 166 168 171 175 178 174 169 165 165 167 166 169 171 172 174 173 170 165 161 158 154 152 149 142 139 139 135 134 135 139 141 137 136 128 124 131 130 120 109 99 109 134 142
184 149 220 220 186 202 197 195 217 234 320 323 333 5 340 328 169 191 201 117 132 169 113 62 98 67 85 124 140 139 140 146 146 149 149 144 145 140 131 132 130 120 123 130 132 137 140 144 134 132 143 152 160 163 166 172 173 176 180 178 173 168 169 172 171 176 180 179 180 180 176 174 172 166 162 158 155 153 154 154 148 138 133 132 134 137 141 135 130 135 132 122 116 104 99 122 139
188 183 232 217 204 247 222 209 240 242 296 311 322 327 328 322 217 233 178 135 166 200 185 174 193 169 143 144 148 145 146 149 148 145 136 126 115 104 101 102 107 111 127 134 127 127 137 141 125 124 139 156 163 163 165 171 173 174 179 181 176 173 175 175 177 183 186 186 186 187 185 184 180 173 171 168 163 166 168 167 157 148 143 135 130 132 141 145 140 136 130 123 121 110 103 112 128
167 198 232 180 176 252 234 208 240 247 251 281 318 312 326 9 242 238 161 154 202 226 216 204 201 175 163 158 155 154 152 150 143 130 116 107 96 93 100 108 120 127 135 141 131 120 128 123 124 133 143 154 162 163 165 173 176 175 179 181 177 178 179 178 182 187 189 193 192 193 195 192 185 180 183 180 174 177 181 182 168 156 151 141 135 132 137 154 152 140 130 126 124 115 112 117 124
166 207 239 156 154 246 257 206 229 226 211 250 318 323 328 33 244 202 183 189 202 236 239 227 194 169 167 162 158 158 156 146 126 118 117 117 111 103 105 120 128 127 133 152 152 117 103 110 129 141 145 155 165 165 169 175 173 177 184 185 187 187 183 183 188 191 193 198 200 202 202 195 191 189 193 188 180 181 187 193 184 164 153 147 146 144 144 160 167 161 143 130 125 116 115 121 132
215 213 230 224 194 243 270 200 206 168 195 272 306 322 334 337 322 185 211 232 53 315 281 248 180 164 163 161 161 160 156 138 117 121 124 124 121 116 125 135 133 134 140 153 151 135 121 122 138 147 148 159 166 169 173 173 168 180 193 193 196 194 188 189 191 194 197 201 206 209 207 203 199 196 198 190 182 183 187 194 195 179 160 157 154 153 156 159 172 173 156 139 127 119 115 120 130
230 211 219 236 210 233 254 272 252 197 239 266 327 297 296 271 296 145 221 238 335 305 277 221 158 151 157 161 161 157 146 125 117 124 121 123 124 125 143 147 141 144 142 141 151 156 153 148 157 156 151 158 162 176 178 173 172 185 198 199 199 195 193 194 194 197 202 205 208 211 214 213 206 201 203 194 184 182 182 185 194 193 178 171 166 161 159 154 163 163 157 144 125 114 109 113 126
216 213 218 226 211 236 256 277 273 265 249 226 199 261 263 222 205 175 230 249 352 308 184 151 146 149 158 160 156 152 139 121 125 125 114 116 117 119 140 154 154 153 145 142 154 160 160 163 176 178 161 160 166 189 194 194 189 193 199 197 199 199 199 200 200 202 204 206 208 211 216 218 218 216 215 206 188 174 170 165 178 190 186 182 177 166 154 150 154 145 142 135 116 103 96 106 129
203 202 207 223 251 265 269 271 270 283 257 169 204 241 131 188 209 229 252 2 42 140 129 138 149 155 158 156 155 152 141 129 134 134 117 113 121 132 152 165 162 158 153 149 153 159 162 168 181 187 174 172 184 193 198 213 209 204 201 199 203 203 204 206 206 208 208 209 211 213 218 223 226 222 222 217 191 161 161 168 168 183 186 183 179 168 152 148 151 141 137 128 109 95 85 105 133
170 184 216 236 273 301 267 262 268 311 267 189 216 251 90 159 221 231 253 67 143 133 123 148 157 160 159 155 153 149 142 135 135 133 117 108 127 151 165 170 164 161 159 157 161 164 164 170 184 194 189 187 195 193 196 210 216 212 205 206 209 207 209 210 212 215 214 215 216 219 226 231 232 229 238 223 178 159 175 198 184 186 192 183 174 163 150 150 149 143 140 129 113 105 101 118 137
153 178 242 252 288 282 232 265 273 283 262 193 203 232 88 146 208 250 119 145 167 142 138 158 162 162 157 151 148 146 144 135 130 129 121 121 149 171 170 168 167 166 164 167 169 166 164 171 183 192 193 192 193 191 195 203 212 215 212 213 212 213 218 216 219 222 224 227 227 229 231 235 240 236 233 205 178 184 193 215 212 201 206 196 178 161 157 160 154 147 142 129 123 125 119 125 136
148 152 264 278 318 274 211 273 280 216 240 168 175 221 232 202 207 300 112 163 161 147 148 154 161 158 150 147 145 144 140 132 130 130 129 139 167 184 176 165 169 171 170 177 175 169 167 168 176 186 191 193 191 191 195 201 207 210 212 215 217 224 229 232 232 228 232 236 238 239 230 228 239 240 233 213 191 215 214 215 225 213 207 200 185 168 161 162 165 153 142 137 143 146 130 127 132
177 127 282 295 308 268 173 320 359 184 220 152 180 237 233 223 229 244 177 170 156 150 154 152 151 148 148 151 145 141 140 140 137 126 124 141 178 193 193 168 171 174 175 182 179 173 171 167 172 184 191 192 189 190 193 199 205 209 216 220 222 228 237 249 256 251 251 251 259 263 251 235 240 244 240 226 214 228 221 213 225 214 201 197 186 177 169 167 175 159 147 155 166 165 151 139 135
141 146 168 329 242 206 155 182 158 178 177 141 204 241 240 239 241 182 187 181 170 165 161 155 146 146 153 152 148 147 145 147 138 126 132 153 187 193 202 191 177 178 180 180 178 176 174 168 173 183 189 190 188 187 191 201 210 217 227 230 228 233 244 258 273 284 284 279 278 277 269 230 233 243 233 219 218 215 207 212 220 208 195 194 187 186 187 181 178 168 165 174 175 173 167 151 137
47 192 183 125 223 227 312 217 194 210 90 116 212 233 256 250 291 153 194 190 186 177 167 163 154 151 155 156 158 153 147 142 138 139 147 162 183 178 188 214 192 181 181 178 179 180 177 176 179 186 192 191 187 187 195 207 210 215 225 232 230 233 239 252 315 313 300 279 264 254 239 193 214 239 230 215 215 208 205 213 215 201 190 193 193 193 196 192 184 175 175 182 187 185 178 160 141
47 249 203 165 193 230 315 166 209 254 108 146 225 241 268 247 342 317 194 190 192 183 175 174 161 155 159 160 163 159 160 153 147 155 157 166 183 171 180 216 203 185 181 179 182 184 182 183 187 192 195 191 186 190 199 202 193 193 205 212 211 208 192 71 11 307 315 216 180 193 206 189 197 223 228 215 209 207 204 207 208 189 182 188 192 191 191 194 184 172 171 185 203 189 174 162 146
166 244 190 177 209 208 262 186 146 274 188 201 220 234 245 239 9 35 183 187 194 191 183 175 160 160 164 161 169 171 172 170 162 167 166 172 184 177 188 211 200 187 186 183 186 189 188 189 189 187 188 184 185 191 191 184 174 173 180 181 175 157 122 74 335 319 4 146 169 191 186 174 185 196 205 198 196 201 192 197 199 175 171 174 175 179 186 196 193 179 172 185 207 190 167 164 156
174 179 165 180 227 208 262 258 132 130 212 215 185 221 240 235 318 149 184 189 194 198 185 168 159 164 169 170 178 179 176 177 171 172 176 178 179 181 193 201 188 187 193 190 192 196 196 199 193 176 176 175 178 180 174 170 167 167 166 160 151 135 126 124 90 63 61 92 129 154 125 130 162 171 175 176 179 188 182 185 182 164 166 163 158 162 175 191 202 190 158 155 183 198 172 166 161
152 156 164 175 225 234 254 260 238 192 221 226 206 216 236 236 230 194 187 191 196 196 182 175 166 167 179 183 187 185 180 177 171 179 188 188 182 184 192 192 182 185 195 195 196 202 208 210 201 184 175 169 168 168 164 167 167 163 160 154 145 135 129 118 93 86 85 88 97 101 102 112 137 146 150 156 162 172 170 170 169 166 164 155 150 156 167 184 192 180 141 138 160 176 151 154 155
126 133 166 196 239 259 253 241 286 268 235 244 220 218 235 241 230 189 182 187 199 197 194 196 179 173 183 189 195 191 179 166 164 183 195 195 192 193 193 192 187 184 193 197 197 202 208 207 202 189 175 167 164 163 164 169 170 166 161 155 146 134 123 104 90 91 94 98 100 97 97 101 114 130 141 147 154 159 152 152 158 160 157 151 149 147 156 174 182 173 144 136 153 153 141 147 149
126 160 203 236 221 251 264 194 337 274 237 270 138 216 232 232 284 184 187 189 204 206 201 204 187 177 179 190 201 188 160 151 162 180 195 194 190 193 196 197 193 186 190 195 192 196 201 203 200 187 175 170 167 166 166 168 170 169 165 158 148 132 117 103 101 101 104 107 106 101 99 101 106 117 128 138 148 150 144 145 151 154 163 167 153 137 141 156 168 174 162 146 145 147 148 155 158
129 155 232 244 205 257 276 124 43 266 223 252 140 200 229 245 349 288 208 201 216 225 223 232 199 182 182 190 193 168 156 163 173 181 188 189 184 188 196 198 195 191 192 196 194 194 198 200 197 187 178 172 170 169 165 166 169 171 168 160 149 131 119 115 112 112 111 110 107 103 101 103 107 110 115 124 130 131 131 139 143 145 158 159 143 133 137 151 162 173 180 170 154 149 152 168 183
176 170 216 241 177 239 234 125 47 52 335 285 170 154 126 3 11 199 215 235 302 279 233 253 232 192 183 185 185 175 177 177 177 183 183 184 183 184 193 198 199 196 193 195 194 193 195 196 193 187 180 173 174 172 166 169 172 171 168 160 149 134 126 123 118 117 115 109 104 100 97 95 96 100 107 113 115 113 113 122 129 130 134 135 134 137 143 158 169 175 180 175 165 158 159 176 196
212 205 216 238 219 215 233 13 20 151 97 322 176 140 98 46 125 154 132 255 270 272 211 224 221 187 176 200 209 188 182 183 176 181 183 180 182 187 197 200 197 196 197 198 197 193 188 188 191 189 181 176 176 175 175 179 174 169 163 152 144 133 129 130 123 119 116 111 104 98 92 86 83 87 96 104 108 108 108 114 120 120 121 128 136 145 152 159 168 176 178 174 171 166 163 168 181
226 216 216 228 222 211 249 333 343 192 150 47 277 164 121 40 148 160 23 256 227 216 213 219 203 181 190 214 219 185 183 193 181 181 180 178 185 189 195 201 204 206 199 171 142 141 147 160 183 186 181 179 181 182 185 183 176 170 163 154 148 138 132 133 128 123 119 113 106 98 92 87 84 84 92 105 110 108 109 112 113 115 117 129 145 149 151 154 158 165 165 164 165 160 157 157 160
225 215 208 214 215 209 239 251 204 203 140 88 305 202 138 90 122 112 357 241 209 205 228 227 208 194 204 218 214 179 185 193 186 187 178 180 190 191 199 205 186 84 68 66 68 89 139 165 183 185 181 183 185 186 186 182 175 172 169 163 156 147 139 137 134 129 124 115 108 103 100 101 98 98 104 116 121 115 112 115 114 114 115 126 145 147 146 148 151 156 156 156 157 154 155 155 156
199 184 172 177 193 212 208 190 165 262 330 140 288 333 126 129 107 19 337 201 192 214 219 223 223 209 210 223 216 188 187 187 188 192 183 183 190 195 195 99 76 66 61 66 81 116 162 182 187 184 182 184 185 183 182 181 179 176 173 163 153 150 144 141 139 132 123 115 107 105 108 109 105 103 107 121 135 128 109 110 117 117 115 121 129 134 139 142 147 152 153 154 155 155 160 158 158
239 142 142 152 172 183 169 162 125 42 245 166 27 347 128 135 357 346 336 211 177 236 226 218 228 221 217 226 220 195 188 187 185 186 175 175 181 175 97 88 86 79 79 100 113 130 167 186 183 178 179 181 183 183 181 182 186 184 175 160 152 151 146 141 139 132 126 119 107 105 108 111 111 112 114 123 137 132 108 98 114 126 125 122 124 127 130 132 139 148 153 157 155 155 157 154 153
149 134 107 94 97 90 102 133 117 113 223 172 21 339 159 144 343 340 360 40 26 324 306 239 233 235 228 228 222 195 174 168 166 160 149 149 147 115 100 104 106 111 127 130 129 135 134 84 122 161 177 179 181 182 182 183 187 187 178 166 157 152 149 145 140 135 133 128 122 119 115 114 117 123 125 125 131 131 120 110 121 135 136 127 125 128 128 127 131 139 149 156 158 154 146 142 143
150 142 100 92 77 51 71 45 66 183 198 149 356 326 252 154 200 270 205 61 353 322 316 320 302 270 246 239 235 190 150 141 140 133 126 119 114 109 109 114 117 122 136 135 130 133 113 53 51 96 164 183 185 183 183 184 185 186 181 174 166 155 152 152 147 143 139 135 134 132 130 127 124 128 128 125 125 118 110 115 125 134 136 130 127 124 120 118 119 124 130 137 146 149 140 134 134
159 148 115 134 74 26 112 35 357 198 179 96 6 313 262 171 162 264 301 334 347 325 308 314 317 307 293 291 310 136 138 141 136 128 122 110 102 102 105 114 121 125 135 133 131 140 150 153 150 127 129 197 196 192 189 186 184 183 180 177 172 161 157 156 152 149 144 141 140 138 135 129 126 129 128 126 124 112 108 117 124 129 131 132 130 120 116 115 115 116 118 121 125 131 133 131 129
176 135 141 168 162 164 198 215 211 211 190 67 9 292 226 118 105 331 324 336 345 330 306 303 304 305 312 331 28 134 143 142 135 123 112 102 93 92 96 105 114 119 128 134 137 147 157 162 169 181 194 198 209 211 202 192 187 183 179 175 171 165 161 156 150 149 147 145 142 140 139 132 129 131 132 130 124 117 123 126 126 127 129 133 130 121 119 117 115 115 115 116 116 120 125 127 128
188 163 163 177 157 158 193 189 214 241 186 71 351 285 162 123 50 336 329 334 339 329 312 302 299 303 311 328 104 137 139 137 129 115 106 98 88 88 101 110 107 112 134 145 149 160 170 170 172 181 186 194 210 214 202 187 181 181 179 174 169 164 157 152 147 147 150 150 149 147 143 137 135 137 137 132 126 129 137 138 140 142 141 142 136 130 127 123 119 119 119 118 118 121 126 128 130
181 149 155 180 169 177 209 198 197 203 139 84 344 232 159 140 96 355 324 316 341 354 346 337 335 344 7 69 111 123 125 126 121 115 112 106 101 106 127 126 117 134 163 162 161 170 176 175 179 187 191 199 205 202 191 183 178 177 177 172 166 160 154 149 148 152 156 161 163 161 151 142 140 145 144 136 133 144 151 156 160 156 151 145 140 137 134 129 125 125 126 125 125 128 131 133 134
135 76 148 191 188 161 148 130 158 185 137 118 189 225 359 117 95 352 299 215 36 26 19 18 22 32 58 84 102 115 124 130 128 129 132 128 126 133 149 137 135 172 177 169 167 170 173 176 184 193 199 202 197 188 196 205 197 185 178 173 166 159 153 150 150 154 161 176 182 177 164 149 149 158 155 143 141 149 154 160 164 160 153 145 145 145 138 134 132 129 129 129 130 133 134 133 131
135 177 176 176 68 123 117 116 57 6 191 168 124 154 120 170 191 299 9 41 32 22 20 26 29 34 47 60 74 93 110 121 119 122 121 101 102 114 127 199 197 179 178 181 179 178 180 181 184 194 203 202 192 193 206 208 198 180 165 157 148 144 144 141 143 149 160 183 194 195 184 163 165 183 179 164 153 149 146 147 147 143 138 135 138 140 135 131 129 127 128 127 130 132 130 128 128
142 185 165 131 63 84 113 155 103 122 197 171 71 115 169 175 171 360 357 1 2 0 6 22 32 35 42 48 52 56 57 63 63 67 64 53 52 54 63 103 139 164 181 192 194 192 191 190 190 197 205 204 195 194 198 193 177 157 143 139 135 141 147 136 133 139 158 181 190 201 204 183 175 198 200 190 174 158 148 140 136 129 123 123 123 122 119 119 119 121 123 124 126 127 125 124 124
49 151 136 135 189 162 155 166 154 179 187 144 124 171 236 196 7 342 333 340 342 339 348 17 35 33 36 48 56 59 56 56 61 60 54 54 60 63 69 84 110 165 186 198 202 199 193 190 190 193 201 204 199 190 180 167 163 163 163 164 165 172 169 150 145 146 169 211 204 207 213 200 185 198 204 200 191 174 159 142 133 129 121 117 118 117 114 111 115 116 117 119 122 123 122 120 121
56 119 120 19 287 165 168 162 167 190 182 142 151 185 199 154 346 318 309 322 328 320 329 12 41 36 34 50 62 68 64 54 54 62 63 59 58 60 67 78 93 125 161 187 197 196 187 181 180 184 193 198 198 193 178 162 167 179 183 186 192 189 177 166 162 156 177 229 232 219 215 213 201 196 201 202 199 189 177 163 150 141 129 120 120 121 115 109 113 115 116 119 120 121 123 122 123
129 158 159 149 65 94 167 100 52 201 177 153 164 184 165 74 351 311 307 316 315 304 304 359 59 57 47 44 48 59 62 52 43 48 56 57 55 53 55 63 77 95 115 142 170 182 181 178 177 180 186 189 192 192 185 176 179 188 191 191 194 191 184 180 178 170 185 216 236 234 220 219 214 205 205 207 205 200 192 184 175 165 153 146 142 137 130 119 116 115 118 124 127 128 130 130 133
172 170 174 158 125 141 171 168 144 6 164 168 173 174 142 43 350 321 319 317 318 313 284 110 75 67 59 46 43 50 56 52 45 45 49 51 50 48 49 53 60 65 70 84 109 142 164 176 180 180 181 181 180 183 186 186 187 192 193 192 192 192 190 193 198 197 202 216 239 246 228 222 220 214 211 212 212 207 202 200 196 192 187 185 185 178 166 152 145 137 130 134 141 145 145 142 142